Los Alamos, NM

9:13 PM MDT on September 19, 2017 (GMT -0600)
Los Alamos

Weather History for KLAM - August, 2014

Change the Weather History Date:

Monday, August 25, 2014

  Actual Average Record
Temperature  
Mean Temperature 70 °F -  
Max Temperature 80 °F 76 °F 87 °F (2007)
Min Temperature 60 °F 51 °F 42 °F (1992)
Cooling Degree Days 5    
Growing Degree Days 20 (Base 50)    
Moisture  
Dew Point 41 °F    
Average Humidity 36    
Maximum Humidity 65    
Minimum Humidity 23    
Precipitation  
Precipitation 0.00 in - - ()
Sea Level Pressure  
Sea Level Pressure 30.27 in    
Wind  
Wind Speed 6 mph (South)    
Max Wind Speed 21 mph    
Max Gust Speed 32 mph    
Visibility 10 miles    
Events      
Averages and records for this station are not official NWS values.
T = Trace of Precipitation, MM = Missing Value Source: NWS Daily Summary

Daily Weather History Graph

Daily Weather History Graph

Search for Another Location

Airport or City:

Trip Planner

Search our weather history database for the weather conditions in past years. The results will help you decide how hot, cold, wet, or windy it might be!

Date:

Astronomy

Aug. 25, 2014 Rise Set
Actual Time 6:31 AM MDT 7:42 PM MDT
Civil Twilight 6:05 AM MDT 8:08 PM MDT
Nautical Twilight 5:33 AM MDT 8:39 PM MDT
Astronomical Twilight 5:00 AM MDT 9:12 PM MDT
Moon 6:37 AM MDT (8/25) 7:36 PM MDT (8/25)
Length of Visible Light 14h 03m
Length of Day
13h 10m
New Moon, 0% of the Moon is Illuminated
Aug 25
New Moon
Sep 2
First Quarter
Sep 8
Full
Sep 15
Last Quarter
Sep 24
New

Hourly Weather History & Observations

Time (MDT) Temp. Dew Point Humidity Pressure Visibility Wind Dir Wind Speed Gust Speed Precip Events Conditions
12:15 AM 67.5 °F 38.5 °F 35% 30.25 in 10.0 mi SW 8.1 mph - N/A   Clear
12:35 AM 67.1 °F 38.3 °F 35% 30.25 in 10.0 mi SW 9.2 mph - N/A   Clear
12:55 AM 66.7 °F 37.8 °F 34% 30.25 in 10.0 mi WSW 6.9 mph - N/A   Clear
1:15 AM 66.0 °F 38.5 °F 36% 30.25 in 10.0 mi SSE 8.1 mph - N/A   Clear
1:35 AM 65.3 °F 38.3 °F 37% 30.25 in 10.0 mi South 6.9 mph - N/A   Clear
1:55 AM 64.9 °F 38.3 °F 37% 30.24 in 10.0 mi SW 6.9 mph - N/A   Clear
2:15 AM 65.3 °F 37.4 °F 36% 30.24 in 10.0 mi WSW 8.1 mph - N/A   Clear
2:35 AM 66.7 °F 37.8 °F 34% 30.24 in 10.0 mi WSW 8.1 mph - N/A   Clear
2:55 AM 67.5 °F 39.4 °F 36% 30.23 in 10.0 mi WSW 8.1 mph - N/A   Scattered Clouds
3:15 AM 67.8 °F 39.7 °F 36% 30.24 in 10.0 mi ENE 3.5 mph - N/A   Mostly Cloudy
3:35 AM 64.2 °F 38.5 °F 39% 30.24 in 10.0 mi Calm Calm - N/A   Mostly Cloudy
3:55 AM 65.5 °F 38.5 °F 37% 30.24 in 10.0 mi Calm Calm - N/A   Scattered Clouds
4:15 AM 64.0 °F 38.3 °F 39% 30.24 in 10.0 mi Calm Calm - N/A   Clear
4:35 AM 64.8 °F 39.7 °F 40% 30.23 in 10.0 mi Calm Calm - N/A   Clear
4:55 AM 63.9 °F 39.0 °F 40% 30.24 in 10.0 mi East 6.9 mph - N/A   Clear
5:15 AM 62.4 °F 39.0 °F 42% 30.24 in 10.0 mi Calm Calm - N/A   Clear
5:35 AM 62.1 °F 39.2 °F 43% 30.25 in 10.0 mi Calm Calm - N/A   Clear
5:55 AM 61.0 °F 39.4 °F 45% 30.24 in 10.0 mi WNW 3.5 mph - N/A   Clear
6:15 AM 62.8 °F 38.7 °F 41% 30.26 in 10.0 mi Calm Calm - N/A   Clear
6:35 AM 61.2 °F 39.2 °F 44% 30.26 in 10.0 mi Calm Calm - N/A   Clear
6:55 AM 61.2 °F 39.6 °F 45% 30.27 in 10.0 mi Calm Calm - N/A   Clear
7:15 AM 62.6 °F 40.3 °F 44% 30.28 in 10.0 mi Calm Calm - N/A   Clear
7:35 AM 62.8 °F 39.6 °F 42% 30.29 in 10.0 mi Calm Calm - N/A   Clear
7:55 AM 64.2 °F 41.4 °F 43% 30.29 in 10.0 mi Calm Calm - N/A   Clear
8:35 AM 66.2 °F 39.7 °F 38% 30.30 in 10.0 mi NE 4.6 mph - N/A   Scattered Clouds
8:55 AM 64.8 °F 41.5 °F 43% 30.30 in 10.0 mi Calm Calm - N/A   Scattered Clouds
9:15 AM 66.4 °F 40.6 °F 39% 30.31 in 10.0 mi ENE 4.6 mph - N/A   Scattered Clouds
9:35 AM 67.3 °F 40.8 °F 38% 30.31 in 10.0 mi NNE 4.6 mph - N/A   Scattered Clouds
9:55 AM 68.9 °F 40.3 °F 35% 30.31 in 10.0 mi NE 4.6 mph - N/A   Clear
10:15 AM 70.3 °F 40.1 °F 33% 30.32 in 10.0 mi East 3.5 mph - N/A   Clear
10:35 AM 71.1 °F 40.1 °F 32% 30.32 in 10.0 mi NE 3.5 mph - N/A   Clear
10:55 AM 72.1 °F 39.9 °F 31% 30.32 in 10.0 mi NE 3.5 mph - N/A   Clear
11:15 AM 72.7 °F 40.5 °F 31% 30.31 in 10.0 mi NE 5.8 mph - N/A   Clear
11:35 AM 74.1 °F 39.6 °F 29% 30.31 in 10.0 mi NE 4.6 mph - N/A   Clear
11:55 AM 75.0 °F 40.5 °F 29% 30.31 in 10.0 mi ENE 4.6 mph - N/A   Clear
12:15 PM 75.6 °F 38.8 °F 27% 30.31 in 10.0 mi SSE 8.1 mph - N/A   Clear
12:35 PM 76.3 °F 40.1 °F 27% 30.30 in 10.0 mi East 6.9 mph - N/A   Clear
12:55 PM 76.3 °F 38.3 °F 25% 30.30 in 10.0 mi SSE 6.9 mph - N/A   Clear
1:15 PM 78.1 °F 38.1 °F 24% 30.29 in 10.0 mi SW 9.2 mph - N/A   Clear
1:35 PM 78.4 °F 37.9 °F 23% 30.28 in 10.0 mi SSW 10.4 mph 16.1 mph N/A   Clear
1:55 PM 79.0 °F 38.1 °F 23% 30.28 in 10.0 mi SSE 9.2 mph - N/A   Scattered Clouds
2:15 PM 77.0 °F 37.2 °F 24% 30.27 in 10.0 mi SSW 5.8 mph - N/A   Scattered Clouds
2:35 PM 77.7 °F 39.0 °F 25% 30.27 in 10.0 mi WSW 8.1 mph - N/A   Clear
2:55 PM 79.9 °F 39.9 °F 24% 30.26 in 10.0 mi SW 9.2 mph - N/A   Clear
3:15 PM 78.8 °F 39.6 °F 25% 30.25 in 10.0 mi SSW 4.6 mph - N/A   Clear
3:35 PM 79.9 °F 39.7 °F 24% 30.24 in 10.0 mi SW 6.9 mph - N/A   Clear
3:55 PM 77.4 °F 39.6 °F 26% 30.23 in 10.0 mi NW 3.5 mph - N/A   Clear
4:15 PM 80.4 °F 39.7 °F 23% 30.23 in 10.0 mi SW 9.2 mph - N/A   Mostly Cloudy
4:35 PM 77.5 °F 39.7 °F 26% 30.23 in 10.0 mi SSW 8.1 mph - N/A   Mostly Cloudy
4:55 PM 79.3 °F 39.6 °F 24% 30.22 in 10.0 mi Calm Calm - N/A   Clear
5:15 PM 79.7 °F 38.3 °F 23% 30.22 in 10.0 mi South 8.1 mph - N/A   Scattered Clouds
5:35 PM 78.8 °F 37.8 °F 23% 30.21 in 10.0 mi WSW 5.8 mph - N/A   Clear
5:55 PM 77.4 °F 37.2 °F 23% 30.21 in 10.0 mi South 5.8 mph - N/A   Clear
6:15 PM 78.3 °F 37.9 °F 23% 30.21 in 10.0 mi South 6.9 mph - N/A   Clear
6:35 PM 77.2 °F 38.5 °F 25% 30.21 in 10.0 mi SSE 8.1 mph - N/A   Clear
6:55 PM 76.8 °F 38.1 °F 25% 30.21 in 10.0 mi South 9.2 mph - N/A   Clear
7:15 PM 75.7 °F 38.3 °F 26% 30.22 in 10.0 mi South 8.1 mph - N/A   Clear
7:35 PM 75.0 °F 37.6 °F 26% 30.23 in 10.0 mi South 10.4 mph - N/A   Clear
7:55 PM 71.2 °F 44.4 °F 38% 30.24 in 10.0 mi South 18.4 mph 32.2 mph N/A   Clear
8:15 PM 68.0 °F 46.8 °F 47% 30.26 in 10.0 mi South 20.7 mph 31.1 mph N/A   Clear
8:35 PM 67.1 °F 47.3 °F 49% 30.27 in 10.0 mi SSW 13.8 mph 19.6 mph N/A   Clear
8:55 PM 66.7 °F 46.9 °F 49% 30.28 in 10.0 mi SSW 16.1 mph 25.3 mph N/A   Clear
9:15 PM 66.4 °F 46.8 °F 49% 30.29 in 10.0 mi South 16.1 mph 26.5 mph N/A   Clear
9:35 PM 66.0 °F 47.3 °F 51% 30.30 in 10.0 mi South 16.1 mph 21.9 mph N/A   Clear
9:55 PM 65.1 °F 48.2 °F 54% 30.30 in 10.0 mi South 16.1 mph 24.2 mph N/A   Clear
10:15 PM 64.0 °F 48.4 °F 57% 30.31 in 10.0 mi South 12.7 mph - N/A   Clear
10:35 PM 63.5 °F 48.6 °F 58% 30.32 in 10.0 mi SSW 10.4 mph - N/A   Clear
10:55 PM 62.8 °F 48.6 °F 60% 30.32 in 10.0 mi South 8.1 mph - N/A   Clear
11:15 PM 61.9 °F 48.4 °F 61% 30.32 in 10.0 mi South 5.8 mph - N/A   Clear
11:35 PM 60.8 °F 48.6 °F 64% 30.32 in 10.0 mi SSW 5.8 mph - N/A   Clear
11:55 PM 60.4 °F 48.6 °F 65% 30.32 in 10.0 mi SSW 5.8 mph - N/A   Clear